Location: Albany
(35.0170°S, 117.8920°E)
Time: 03:26:03
(UTC+08:00)

Vanguard 1 - Pass Details

Date: 29 January 2021
Orbit: 649 x 3833 km, 34.2° (Epoch: 26 February)

Event Time Altitude Azimuth Distance (km) Brightness Sun altitude
Rises 20:34:12 0° 336° (NNW) 6,806 14.2 -14.5°
Reaches altitude 10° 20:41:18 10° 352° (N) 5,123 13.4 -15.7°
Maximum altitude 20:49:17 18° 28° (NNE) 3,631 12.4 -17.1°
Enters shadow 20:49:32 18° 29° (NNE) 3,605 12.4 -17.1°
Drops below altitude 10° 20:55:05 10° 66° (ENE) 3,553 - -18.0°
Sets 20:58:40 0° 85° (E) 4,099 - -18.6°
